Weather in Los Baños

Philippines     14°10′45″N   121°13′54″E
temp.,
°C
wind,
m/s
gust,
m/s
humid.,
%
clouds,
%
prec.,
mm/h
press.,
hPa
HPBL,
m
18 may, tue
tue1823:00+28e5978100 0.0 1010853
02:00+28ene4877100 1.1 1009795
05:00+27e377994 0.0 1009454
08:00+30ene586389 0.0 10101162
11:00+33ene6755100 0.0 10091157
14:00+31ene7862100 0.1 1008798
17:00+30ene6866100 0.3 1008678
20:00+28e597999 1.5 1010650
19 may, wed
wed1923:00+28e597991 0.0 1010723
02:00+27e5983100 0.0 1008610
05:00+27e5883100 0.0 1009602
08:00+30e6864100 0.0 10101263
11:00+33ene6751100 0.0 10091050
14:00+33ne7750100 0.0 10071104
17:00+31ene6862100 0.0 1007963
20:00+28e6977100 0.0 1009747
20 may, thu
thu2023:00+28e5879100 0.0 1010648
02:00+27ene3681100 0.0 1008475
05:00+26e358630 0.1 1008280
08:00+30ene466686 0.1 10101133
11:00+33ne565197 0.0 10081110
14:00+34ene7747100 0.0 10061013
17:00+32ene6860100 0.0 1006678
20:00+28e587591 0.0 1009542
21 may, fri
fri2123:00+26ese348438 0.1 1010207
02:00+26e1186100 0.6 100889
05:00+26ese2286100 0.4 1008125
08:00+28ene2473100 0.5 1009569
11:00+31ene5664100 0.3 10081046
14:00+32e2460100 1.0 1006664
17:00+29se4576100 4.4 1007317
20:00+26s3385100 8.9 1009111
22 may, sat
sat2223:00+26sse1184100 3.8 1009103
02:00+26nnw1284100 5.4 1008240
05:00+26ne1282100 0.0 1008372
08:00+28ne127692 0.1 1009505
11:00+31sse126095 0.0 1008702
14:00+33se3357100 0.6 10051150
17:00+29sse2373100 2.1 1006145
20:00+27se238399 3.8 100885